Satellite: SUMBDILA
Catalog number: 35870
Epoch time: 09281.90645946
Element set: 60
Inclination: 097.3706 deg
RA of node: 331.5781 deg
Eccentricity: 0.0010696
Arg of perigee: 214.8334 deg
Mean anomaly: 251.3038 deg
Mean motion: 15.22803385 rev/day
Decay rate: 4.29e-06 rev/day^2
Epoch rev: 322
Checksum: 289
/EX
More information about the Keps
mailing list